This is the latest recevied weather packets stored in our database for station/object NA9VY-8. If no packets are shown the sender has not sent any weather packets the latest 10 day(s).
| Time | Temp. | Humidity | Pressure | Rain* | Wind** | Luminosity | Snow |
|---|---|---|---|---|---|---|---|
| 1777470161 | 12.22° C | 99% | 1015.5 hPa | 2.29 mm | - | 71 W/m² | - |
| 1777469858 | 12.22° C | 99% | 1015.7 hPa | 1.78 mm | - | 43 W/m² | - |
| 1777469554 | 12.22° C | 99% | 1015.7 hPa | 1.27 mm | - | 43 W/m² | - |
| 1777469254 | 12.22° C | 99% | 1015.8 hPa | 0 mm | - | 45 W/m² | - |
| 1777468948 | 12.22° C | 99% | 1015.5 hPa | 0 mm | - | 42 W/m² | - |
| 1777468645 | 12.22° C | 99% | 1015.4 hPa | 0 mm | - | 43 W/m² | - |
| 1777468342 | 12.22° C | 99% | 1015.3 hPa | 0.51 mm | - | 77 W/m² | - |
| 1777468038 | 11.67° C | 99% | 1015.4 hPa | 1.78 mm | - | 91 W/m² | - |
| 1777467734 | 12.22° C | 99% | 1015.7 hPa | 1.78 mm | - | 43 W/m² | - |
| 1777467429 | 12.22° C | 99% | 1015.7 hPa | 1.27 mm | - | 31 W/m² | - |
| 1777467125 | 12.22° C | 99% | 1015.4 hPa | 0.51 mm | - | 34 W/m² | - |
| 1777466822 | 12.22° C | 99% | 1015.5 hPa | 0.51 mm | - | 26 W/m² | - |
| 1777466520 | 12.22° C | 99% | 1015.5 hPa | 1.27 mm | - | 23 W/m² | - |
| 1777466216 | 12.22° C | 99% | 1015.8 hPa | 1.27 mm | - | 31 W/m² | - |
| 1777465912 | 11.67° C | 99% | 1015.9 hPa | 3.56 mm | - | 15 W/m² | - |
| 1777465609 | 12.22° C | 99% | 1015.5 hPa | 10.16 mm | - | 10 W/m² | - |
| 1777465304 | 12.22° C | 99% | 1015.4 hPa | 7.87 mm | - | 6 W/m² | - |
| 1777464998 | 12.22° C | 99% | 1015.7 hPa | 3.05 mm | - | 10 W/m² | - |
| 1777464693 | 12.22° C | 99% | 1015.6 hPa | 3.56 mm | - | 9 W/m² | - |
| 1777464390 | 12.22° C | 99% | 1015.4 hPa | 5.33 mm | - | 4 W/m² | - |
| 1777464087 | 12.22° C | 99% | 1014.9 hPa | 3.56 mm | - | 5 W/m² | - |
| 1777463786 | 12.22° C | 99% | 1015.1 hPa | 1.78 mm | - | 7 W/m² | - |
| 1777463481 | 12.22° C | 99% | 1015 hPa | 1.78 mm | - | 4 W/m² | - |
| 1777463177 | 12.22° C | 99% | 1015.1 hPa | 1.27 mm | - | 7 W/m² | - |
| 1777462873 | 12.22° C | 99% | 1015.2 hPa | 0.51 mm | - | 9 W/m² | - |
* Rain latest hour (hover to see other rain measurements)
** Current wind speed in m/s (hover to see current wind gust speed)